Location: Byszew
(52.1813°N, 19.2693°E)
Time: 14:46:19
(UTC+00:00)

COSMOS 2428 - Pass Details

Date: 03 March 2021
Orbit: 845 x 858 km, 70.9° (Epoch: 13 April)

Event Time Altitude Azimuth Distance (km) Brightness Sun altitude
Rises 19:18:42 0° 206° (SSW) 3,395 5.9 -26.6°
Reaches altitude 10° 19:21:08 10° 205° (SSW) 2,464 5.1 -26.9°
Enters shadow 19:24:47 42° 202° (SSW) 1,189 3.3 -27.4°
Exits shadow 19:32:04 12° 32° (NNE) 2,318 4.9 -28.4°
Drops below altitude 10° 19:32:31 10° 32° (NNE) 2,486 5.1 -28.5°
Sets 19:34:58 0° 32° (NNE) 3,427 5.9 -28.8°
